GFSMW_700_spd_159.txt.gz
Wind_Speed
8 8 11 8 9 12 11 15 11 14 14 15 13 16 16 14 15 8 13 11 10 9 8 8 11 12 9 9 7 7 10 6 3 3 7 12 8 7 8 6 5 17 4
5 15 10 14 11 7 7 11 12 13 15 17 19 19 15 20 17 13 10 11 11 11 13 12 11 10 8 9 8 7 7 3 2 1 2 5 8 2 3 5 13 16 9
15 11 19 17 16 10 6 5 8 14 15 16 18 18 17 18 15 12 10 9 10 12 11 10 11 11 10 8 8 7 6 2 1 4 2 1 4 7 7 7 7 10 12
18 13 25 17 21 9 11 7 6 11 16 17 18 19 12 11 11 11 13 14 12 10 11 11 7 11 8 10 9 6 5 4 1 2 2 1 2 3 0 8 3 6 13
19 14 25 23 20 13 9 6 7 11 15 18 18 17 16 19 15 18 17 16 11 8 10 10 8 8 9 9 8 5 5 5 2 2 2 2 4 5 2 2 3 10 10
19 21 27 23 17 20 18 10 10 11 14 18 18 18 19 17 16 15 13 10 12 11 9 10 9 7 8 11 10 7 6 5 3 0 1 4 4 5 5 6 3 4 5
24 19 17 16 19 19 18 9 10 12 14 15 17 19 19 16 14 13 12 14 12 14 10 10 8 4 4 8 10 11 10 9 4 3 3 3 6 2 5 10 11 11 8
27 23 20 16 24 24 29 16 12 13 15 16 16 20 18 19 18 14 13 14 16 12 13 14 13 6 4 5 7 8 10 10 8 5 4 3 3 2 3 8 7 11 9
21 14 15 19 18 22 23 25 15 14 15 18 16 18 18 18 19 16 18 12 12 15 10 13 15 11 10 8 5 5 8 9 8 5 3 5 5 5 4 4 7 8 9
15 7 13 18 15 16 26 29 24 16 15 18 17 17 18 17 17 18 18 15 18 17 12 15 14 13 15 12 11 10 7 7 8 5 4 5 4 4 4 2 2 4 6
11 12 15 10 9 12 23 31 34 26 19 17 17 17 18 19 18 18 15 15 17 15 13 12 13 15 12 12 10 11 8 9 6 3 4 6 6 6 3 2 5 6 6
11 13 11 11 14 14 15 24 28 37 28 21 20 19 18 18 19 18 15 17 15 14 14 12 8 10 8 10 11 10 7 7 5 6 5 7 5 6 6 5 7 3 2
7 7 7 6 8 12 13 16 18 20 13 32 24 22 20 17 17 18 17 17 17 16 14 12 9 10 11 11 9 10 8 8 7 6 7 8 6 8 8 7 7 6 5
5 4 5 5 5 5 17 18 14 17 24 36 33 22 22 18 17 16 17 16 16 15 13 13 15 15 14 12 10 11 10 10 9 9 8 9 9 8 9 10 10 8 10
6 2 5 3 2 3 5 7 10 12 9 18 28 18 25 22 21 17 16 17 17 16 15 15 12 13 13 12 13 14 12 12 12 9 9 11 10 11 13 12 13 13 13
6 1 4 8 7 5 5 10 10 10 9 12 12 17 32 25 22 20 17 15 12 13 13 13 13 13 14 14 15 15 15 16 15 14 13 12 13 12 12 12 14 15 15
8 2 4 8 10 11 10 5 8 9 10 10 13 16 24 16 20 18 28 16 14 15 16 15 14 13 14 15 16 17 17 17 17 17 17 16 15 15 15 16 16 17 18
9 5 2 5 10 15 17 7 5 7 4 5 8 15 22 25 24 25 23 23 19 20 19 19 19 17 16 16 16 17 17 15 15 16 18 19 18 16 18 18 18 18 19
11 7 4 7 13 17 21 13 5 7 8 6 3 6 9 24 22 28 27 26 26 27 26 25 24 26 23 21 21 21 22 21 19 18 15 16 19 20 21 20 19 18 16
10 8 7 8 11 18 22 15 11 8 7 9 7 4 3 5 15 27 25 26 28 27 31 31 30 30 30 31 30 28 28 26 24 24 19 18 19 24 25 24 22 20 18
8 8 9 12 15 17 22 12 10 12 11 7 9 11 11 9 7 13 27 33 30 31 31 37 37 34 34 34 33 33 32 31 31 28 27 26 25 26 27 28 25 24 24
10 10 11 12 14 15 15 13 11 11 11 10 9 10 13 13 10 7 5 6 14 27 33 33 35 40 37 36 36 34 33 35 33 29 31 33 31 30 31 30 28 30 29
11 14 15 17 15 14 14 13 13 11 10 11 10 10 11 14 15 14 13 15 16 15 15 25 34 37 38 35 37 37 35 35 35 34 35 36 36 35 32 33 32 33 33
10 11 13 16 17 14 12 13 14 13 12 12 13 11 11 12 14 16 17 17 17 18 22 24 25 26 26 34 38 37 39 41 42 40 38 43 44 40 33 34 34 34 30
11 12 13 16 19 18 13 12 13 14 14 14 15 14 12 11 11 11 11 12 14 16 18 18 21 24 26 29 31 35 35 34 35 32 39 40 23 25 25 19 17 18 23
12 14 16 18 21 21 17 11 8 11 14 16 16 15 12 12 13 12 11 10 7 7 10 12 12 10 14 17 22 26 21 22 26 29 35 33 19 14 9 16 20 14 9

GFSMW_700_spd_162.txt.gz
Wind_Speed
8 5 5 4 5 4 2 3 9 12 16 17 17 17 19 14 17 16 17 15 14 12 16 15 14 10 10 8 6 8 8 4 4 4 6 7 5 3 8 3 10 9 8
10 12 11 5 5 2 2 2 4 11 13 16 10 16 13 14 17 18 16 12 13 16 17 14 11 9 10 7 10 9 7 5 7 3 2 4 3 4 1 2 11 17 18
15 11 13 13 11 5 3 1 2 8 12 16 16 18 17 15 14 14 15 15 12 11 13 12 10 13 12 11 12 9 8 6 4 2 5 5 5 3 4 1 8 9 10
19 18 14 16 10 11 9 6 4 5 13 17 20 19 18 16 14 13 12 13 14 14 13 14 13 16 13 14 12 10 8 8 2 1 4 5 5 6 3 4 4 2 4
21 16 18 12 12 10 15 11 8 6 11 19 19 22 19 15 19 16 17 16 13 14 14 14 13 13 15 14 12 11 10 9 7 6 4 3 6 5 5 2 1 4 3
20 19 15 17 14 15 13 12 8 9 9 13 18 18 17 17 17 16 15 14 17 17 14 17 14 13 13 13 14 12 12 11 9 6 5 4 5 7 8 10 6 3 2
18 19 17 15 19 18 14 16 10 9 7 11 16 18 17 18 18 16 15 18 18 18 15 16 16 14 13 14 16 16 13 12 10 7 7 6 6 5 8 9 9 8 7
20 19 17 17 13 21 18 13 9 7 6 8 13 16 20 21 19 19 18 18 17 16 18 18 17 13 10 10 14 17 17 15 13 10 9 8 6 5 6 8 9 11 10
17 21 22 20 21 17 17 18 26 16 5 4 11 16 22 20 22 20 16 17 17 19 17 17 17 16 12 10 10 11 14 15 14 12 11 9 8 7 6 9 12 11 11
17 11 11 14 21 14 13 14 29 22 15 9 10 14 19 20 21 25 25 22 20 21 20 16 15 14 14 14 12 10 11 11 12 11 11 9 8 6 4 6 8 8 9
11 8 10 11 16 11 11 12 20 28 21 22 20 17 18 21 23 26 26 25 22 18 15 17 16 14 16 16 15 13 12 11 10 10 10 9 8 6 5 3 5 7 7
9 10 6 8 13 16 15 18 21 27 24 28 25 23 22 22 22 24 24 22 19 18 15 20 19 14 16 17 15 15 14 13 12 11 9 9 10 9 7 7 6 5 5
11 8 7 8 7 13 17 17 18 20 24 36 33 29 24 24 22 21 21 23 19 18 18 19 19 14 13 13 13 14 15 14 14 13 11 10 10 11 9 9 9 7 8
7 7 7 8 8 8 10 12 16 16 16 5 35 33 26 26 25 23 21 20 18 17 18 18 19 18 17 15 14 14 15 15 15 14 12 12 12 14 12 12 10 9 10
4 7 4 3 6 7 5 4 6 10 13 17 18 26 33 32 30 27 25 23 24 22 20 19 19 20 19 17 16 17 19 18 15 16 15 14 15 14 15 14 13 13 13
6 12 8 5 3 2 2 5 8 6 5 8 14 13 25 28 31 27 25 24 22 21 21 21 20 21 20 19 19 19 20 20 18 18 18 16 16 16 16 14 14 15 14
7 12 11 7 3 6 7 6 4 8 7 6 10 17 24 28 32 29 27 23 22 22 25 23 20 19 20 21 22 21 21 21 21 20 21 20 19 17 17 17 17 16 16
11 13 11 7 2 5 11 11 6 8 9 6 4 9 15 21 30 31 28 29 28 29 27 26 23 21 20 20 19 20 21 22 21 21 22 23 23 21 20 20 19 19 18
11 13 10 6 2 5 9 13 8 8 10 10 6 7 6 21 28 29 29 35 30 30 29 29 26 25 24 23 22 24 25 24 23 23 22 21 21 21 24 24 22 22 22
10 14 13 8 5 7 11 12 7 8 11 13 12 8 7 6 5 21 25 34 35 35 35 34 32 30 30 30 29 31 31 29 28 28 26 25 23 22 23 24 25 25 25
13 15 13 9 8 9 12 13 8 8 9 13 16 19 17 13 10 9 11 26 30 31 33 35 33 33 33 33 32 36 36 36 36 34 33 31 27 28 27 26 26 27 29
15 13 14 11 10 12 12 11 9 9 9 10 16 18 22 21 17 13 10 6 13 24 30 32 33 36 37 38 38 41 37 36 38 38 37 38 37 30 32 30 31 32 32
13 16 12 10 9 10 10 10 10 8 9 8 11 16 17 18 19 18 17 15 15 16 18 19 19 25 37 38 39 40 41 40 40 38 37 40 35 30 34 37 37 34 35
17 14 12 11 7 7 7 9 12 11 11 11 10 12 15 16 15 17 19 20 20 19 18 19 21 23 25 24 27 35 41 40 40 38 37 36 36 37 37 38 43 40 35
16 14 11 9 9 10 9 9 11 13 12 13 13 13 14 16 16 15 14 14 14 13 13 12 10 11 14 18 23 28 31 30 37 37 37 39 40 39 42 43 50 39 26
13 10 9 9 11 14 15 10 9 10 11 13 14 11 12 15 17 16 13 12 11 10 9 9 11 15 19 17 18 18 20 24 28 29 33 33 35 31 35 35 19 20 23

GFSMW_700_spd_165.txt.gz
Wind_Speed
6 4 6 11 10 9 6 5 12 11 16 15 12 14 14 13 14 15 16 14 13 16 10 15 14 13 12 11 12 10 10 9 6 5 6 9 6 2 7 8 9 6 8
11 5 9 8 11 9 7 8 11 12 13 15 14 16 21 19 15 15 16 13 14 13 12 12 15 12 11 11 12 7 9 6 5 5 6 2 1 4 4 8 11 9 8
13 8 7 9 7 8 9 7 8 12 13 15 15 15 20 21 17 14 16 17 15 15 16 15 13 12 11 8 11 8 7 8 6 4 7 6 1 2 4 8 4 4 6
19 17 11 5 7 7 8 8 6 8 12 15 18 15 17 13 11 10 16 16 15 14 15 15 14 13 10 12 12 11 8 10 7 6 4 6 5 5 2 5 5 2 3
20 16 14 10 5 9 11 9 8 8 9 12 14 15 14 13 12 17 15 12 13 13 13 14 13 13 11 13 13 12 12 11 10 7 5 5 6 7 8 3 3 1 1
25 20 17 15 12 10 11 12 10 9 9 11 13 13 14 13 12 15 14 14 15 15 15 16 16 13 11 14 15 14 14 12 13 10 9 8 6 7 9 10 9 6 5
22 19 19 17 12 15 14 12 10 10 11 10 12 12 14 16 16 18 17 17 14 16 15 16 17 14 14 14 16 18 15 13 12 12 11 10 9 9 11 12 12 10 8
19 15 17 17 14 12 15 10 15 14 12 10 10 11 13 15 16 19 19 17 16 15 18 17 16 17 15 14 16 18 19 15 15 15 11 10 10 11 9 10 10 11 10
16 15 14 12 14 17 16 19 16 14 14 12 12 11 10 12 14 18 19 18 18 17 15 18 17 17 14 12 13 15 19 19 18 17 14 13 12 12 12 11 13 13 11
12 11 9 15 21 13 16 20 19 24 19 16 14 14 12 11 14 18 22 23 20 18 17 16 16 15 15 14 11 11 12 14 16 17 15 14 13 13 10 9 12 10 10
11 8 10 11 17 18 20 24 21 21 27 24 19 17 17 17 18 21 21 24 22 18 15 17 18 18 15 16 15 15 13 13 14 14 15 14 12 11 10 9 6 10 11
10 8 10 11 17 18 18 16 17 23 28 31 24 24 20 20 20 21 21 20 22 19 18 18 20 21 15 16 16 17 16 17 17 15 16 16 13 13 13 11 9 9 11
14 11 11 9 13 16 20 21 23 21 26 35 29 29 26 24 23 23 23 22 19 19 21 21 24 23 19 16 17 17 19 20 19 17 18 17 15 15 15 14 12 9 12
12 10 10 10 13 12 9 10 15 17 19 24 27 26 30 33 27 27 26 25 23 23 22 22 24 24 20 18 17 19 20 22 21 20 19 19 17 17 17 16 15 14 14
9 7 10 9 8 7 6 7 8 16 20 22 24 24 24 40 30 31 29 28 27 26 25 26 26 23 24 22 21 21 22 22 22 23 22 21 20 20 20 20 19 18 17
8 10 10 8 4 2 2 4 7 11 12 13 19 23 19 34 40 34 30 29 28 27 26 26 26 26 26 24 24 24 25 25 25 24 24 25 23 21 22 21 22 22 22
10 14 12 10 8 3 2 4 7 10 12 12 14 17 21 16 32 50 41 30 28 28 27 27 27 27 28 27 27 28 27 26 26 26 27 27 25 24 23 23 23 22 21
13 12 14 10 7 3 4 7 8 10 12 13 13 13 16 26 28 28 34 32 32 30 28 29 29 29 29 28 29 29 30 30 29 30 30 30 29 28 28 27 26 27 25
11 11 15 12 9 6 4 8 12 11 12 13 13 12 10 15 19 28 32 34 33 35 32 31 30 32 30 28 27 29 30 31 30 31 30 30 30 29 29 31 30 30 29
19 14 18 14 12 12 11 13 16 15 13 14 15 14 12 13 17 25 24 33 31 38 39 39 38 38 34 34 31 32 32 33 32 30 30 30 30 30 29 28 30 33 31
21 18 19 16 14 15 16 17 19 16 15 15 16 16 18 15 14 13 16 28 33 38 40 42 41 37 39 39 37 37 39 38 37 36 36 35 35 35 34 33 32 31 31
24 18 17 19 17 16 17 20 19 17 16 16 17 19 20 22 21 19 17 15 14 26 35 30 38 45 46 43 42 43 41 40 41 39 38 39 42 43 42 42 38 34 34
24 20 18 19 17 18 19 21 18 17 17 16 16 17 19 21 23 24 23 21 19 16 14 15 14 13 28 34 48 47 45 46 45 45 44 48 46 45 47 44 41 36 37
26 21 18 17 18 19 17 17 18 16 16 17 16 17 16 19 21 22 23 23 23 21 19 18 18 18 20 23 26 29 30 36 43 43 42 45 47 46 43 40 45 42 36
29 24 16 16 16 15 13 14 17 17 16 17 17 17 17 19 20 22 21 20 19 17 16 14 12 11 11 12 15 18 24 31 35 35 36 42 44 42 40 38 38 36 42
27 22 17 14 12 12 14 13 16 16 16 15 16 16 17 18 19 20 20 19 16 14 13 12 12 13 13 15 18 18 18 22 26 30 33 32 32 36 39 35 36 32 42

GFSMW_700_spd_168.txt.gz
Wind_Speed
4 4 9 12 12 13 9 9 9 10 12 14 9 11 11 11 13 12 15 12 17 15 17 9 15 13 10 7 10 10 10 9 9 8 6 3 1 5 6 1 6 5 2
7 5 8 13 12 11 10 9 12 9 11 10 12 14 13 11 9 13 15 14 12 15 11 13 12 11 9 9 11 10 7 6 7 7 5 4 5 3 2 3 5 4 3
10 6 9 8 12 12 12 11 10 11 13 15 15 15 16 17 12 9 15 14 13 13 12 13 8 11 12 11 10 6 6 6 6 7 7 5 3 0 4 4 1 2 4
16 13 11 11 9 10 14 14 12 13 15 16 14 13 14 14 15 15 14 14 14 13 14 13 13 15 15 13 9 6 9 7 8 7 8 5 4 4 2 4 5 3 2
18 17 12 10 8 13 10 10 11 14 16 16 15 15 10 15 15 13 15 14 15 16 17 17 16 16 14 12 10 9 10 10 10 7 8 7 5 6 6 6 5 3 2
20 18 15 12 11 12 14 12 12 11 12 14 15 14 13 14 14 14 15 13 14 16 15 14 14 16 13 13 12 12 12 12 11 10 11 9 8 7 7 8 10 9 5
20 19 18 15 12 12 10 14 15 13 11 11 13 13 13 14 13 11 14 16 16 14 14 15 14 15 16 14 12 13 13 12 11 12 12 11 10 10 11 11 11 9 8
14 17 18 17 14 10 12 15 15 13 12 13 12 13 14 13 13 14 13 15 15 17 17 17 14 14 16 13 12 15 15 14 13 14 13 11 11 11 11 11 11 10 9
15 17 14 15 15 14 12 15 14 17 16 15 15 15 16 17 16 16 16 17 16 19 19 15 15 14 14 13 11 12 12 14 16 17 15 14 13 12 11 12 13 12 11
13 13 15 14 14 15 13 17 21 20 15 16 18 18 17 18 18 20 19 16 18 17 16 16 17 15 14 14 12 10 9 10 14 20 18 15 14 13 13 12 12 11 8
10 9 9 8 9 14 17 15 17 19 23 19 17 16 17 19 20 21 19 19 19 18 15 17 19 14 15 17 17 15 13 10 10 13 16 15 14 15 13 12 11 8 9
10 11 11 15 16 15 17 18 19 18 18 21 27 25 20 18 19 20 20 20 21 21 20 18 18 18 17 18 17 18 18 17 15 14 15 16 16 14 15 14 14 12 11
7 9 9 12 14 15 17 18 17 17 21 25 26 27 29 25 20 20 21 22 24 23 22 22 21 20 20 22 19 18 20 21 18 18 18 19 19 16 17 16 15 15 14
11 12 9 7 8 11 14 18 20 20 24 23 23 29 33 29 30 28 26 25 25 25 25 24 23 24 24 24 24 22 23 22 21 20 21 21 22 19 19 18 17 18 18
8 9 7 7 9 10 11 11 12 13 18 22 24 25 29 29 28 29 35 29 27 26 27 26 26 27 26 26 26 23 23 23 21 21 23 23 24 22 19 22 20 21 20
8 8 7 8 9 8 7 7 7 11 10 16 20 23 30 31 29 32 35 34 29 26 29 29 28 28 27 26 26 26 26 25 25 24 25 25 26 25 24 24 23 24 23
9 6 9 10 11 8 4 4 6 9 11 14 16 18 19 22 28 24 31 31 28 28 28 30 29 28 29 28 27 28 28 28 27 27 27 28 27 27 27 27 26 26 25
13 10 9 10 11 8 4 4 7 9 10 13 16 18 18 20 21 25 23 35 38 32 30 30 30 30 30 29 28 28 30 30 30 30 30 30 29 29 28 28 29 30 30
9 10 9 11 13 9 6 7 11 13 15 13 16 17 17 16 17 17 22 28 32 42 34 30 30 30 29 30 30 31 32 34 32 32 33 32 31 30 31 33 32 33 34
16 13 9 14 16 11 9 11 13 16 17 15 16 17 18 16 16 15 15 17 21 26 32 32 32 32 30 31 32 32 34 35 34 32 32 32 34 33 34 35 35 34 32
21 20 17 15 18 15 13 14 15 18 21 17 15 16 17 19 16 14 12 14 20 24 28 30 31 33 34 35 36 37 38 38 37 35 35 35 35 35 35 36 37 37 36
25 24 20 19 20 18 17 17 18 21 20 18 17 16 17 18 20 18 14 12 12 12 19 31 37 33 34 36 41 45 43 42 43 40 40 42 42 42 43 43 43 43 45
29 24 22 19 17 20 20 20 22 23 21 19 17 17 17 17 18 21 22 21 20 18 17 13 13 19 28 27 35 50 53 49 46 47 45 45 46 47 45 45 46 48 46
31 29 25 20 18 19 19 20 23 22 21 18 16 16 16 17 16 17 20 20 21 22 22 20 18 18 18 19 19 18 33 45 40 49 57 54 51 55 56 49 49 49 49
36 33 24 20 18 18 18 20 19 19 20 17 16 15 15 16 17 17 18 19 17 16 17 17 16 14 12 11 12 13 16 22 28 31 37 40 42 43 45 49 46 45 44
42 33 28 18 15 15 17 16 16 16 18 16 14 13 14 15 15 15 16 17 16 14 11 11 12 12 13 14 17 18 19 21 24 26 30 33 36 40 42 38 36 33 36

GFSMW_700_spd_171.txt.gz
Wind_Speed
8 7 8 11 14 13 12 11 12 14 19 17 23 26 21 12 12 12 12 11 12 11 13 13 14 14 11 10 9 8 8 8 6 6 5 5 2 4 7 3 1 3 6
12 9 9 11 12 12 11 11 11 13 17 16 14 16 14 15 14 12 12 10 9 13 11 14 12 15 13 10 8 9 7 6 2 4 3 3 4 3 3 3 5 7 8
10 10 8 11 13 13 11 10 12 13 15 16 14 13 13 11 9 12 13 13 12 11 14 12 15 13 12 10 8 8 7 5 2 2 4 3 2 2 5 4 4 6 7
15 13 11 12 10 13 15 15 13 13 13 14 15 14 12 12 14 10 13 15 13 13 13 11 14 14 11 11 10 10 8 6 4 3 4 1 2 4 2 2 5 6 4
18 17 13 11 11 15 15 15 14 14 15 15 14 14 13 13 13 14 14 14 15 14 12 11 13 13 13 13 13 12 9 6 7 5 5 3 4 4 4 5 4 5 4
19 20 17 17 17 16 15 14 13 13 14 15 16 15 16 14 14 13 11 13 14 13 12 13 15 14 14 14 14 13 10 8 9 8 9 5 5 6 5 5 7 10 8
22 20 22 18 16 16 17 16 14 13 12 14 15 16 16 17 17 17 16 16 15 13 13 13 15 15 14 14 11 13 12 10 10 11 10 8 6 7 6 8 7 6 8
24 22 22 19 17 16 16 16 17 15 14 12 13 16 18 19 19 18 17 16 15 13 14 14 12 12 11 14 13 12 13 13 13 13 11 9 8 8 8 9 8 8 7
23 21 23 21 18 18 17 18 18 16 16 14 15 15 17 19 18 19 19 17 17 14 15 15 12 12 13 13 13 12 11 10 12 15 13 12 12 11 11 11 10 8 7
20 21 20 19 20 19 18 19 20 18 17 19 18 17 17 18 19 21 20 20 19 19 15 13 12 11 13 13 14 13 10 8 9 12 15 15 14 13 12 12 12 11 7
11 14 16 16 17 18 20 15 20 20 21 19 20 20 18 18 18 19 20 20 20 20 19 17 16 16 14 16 16 16 15 12 10 10 11 13 14 13 12 12 11 11 9
9 11 14 15 15 15 17 20 17 18 16 22 23 21 20 19 19 18 19 21 22 23 22 21 19 18 18 19 18 18 17 18 16 15 13 13 15 13 13 13 13 13 12
6 7 9 10 15 16 18 19 20 22 18 21 23 25 26 26 21 18 18 20 22 24 26 26 24 23 23 22 22 21 20 20 21 20 18 17 17 17 15 16 15 14 15
7 11 12 12 14 16 17 18 18 20 18 19 24 26 28 30 30 27 24 22 22 25 26 26 26 27 26 26 25 24 22 19 23 22 21 21 19 20 19 18 18 17 16
9 9 9 10 10 11 12 12 14 17 19 21 22 25 24 27 32 30 29 30 28 26 27 26 26 27 29 28 26 23 25 23 23 25 24 24 22 22 22 21 19 20 18
12 11 8 8 10 10 10 9 9 11 13 13 17 19 20 24 27 30 31 29 31 31 33 31 27 26 29 28 27 28 28 27 26 25 25 25 25 24 23 24 22 23 23
15 11 8 8 9 7 7 5 2 3 6 8 12 15 18 19 22 28 32 35 34 36 35 32 29 26 27 29 27 27 29 28 28 27 27 26 26 26 26 25 25 26 26
17 12 7 4 10 9 8 4 1 3 7 8 9 14 18 18 18 20 21 23 28 28 31 31 30 27 26 28 28 29 30 30 30 29 29 28 28 28 29 30 30 29 29
14 14 10 6 12 12 9 6 4 4 8 12 12 12 14 17 18 17 15 17 19 23 32 34 30 27 24 26 28 30 30 30 30 30 30 31 31 30 30 33 33 33 32
17 17 13 6 11 13 11 9 7 8 11 14 14 13 14 15 16 16 15 14 14 14 20 26 33 29 24 25 26 28 29 31 32 32 33 33 35 33 32 34 35 37 33
25 23 18 12 8 12 14 12 11 10 14 17 15 14 14 15 15 15 15 11 10 13 13 16 21 32 30 29 31 32 30 31 34 36 36 36 36 35 34 35 37 36 35
30 31 25 17 14 12 15 16 15 14 16 18 18 16 14 14 14 15 15 14 10 7 9 14 18 23 25 31 31 33 35 36 38 41 42 43 41 41 41 40 41 42 42
35 36 28 25 19 14 15 19 18 17 19 19 17 14 14 13 14 13 15 17 19 17 15 14 13 13 15 22 25 27 27 33 36 43 47 45 45 44 46 48 45 45 45
38 36 29 27 21 15 14 18 19 19 20 18 16 14 13 13 13 13 13 13 16 18 19 19 19 19 18 19 20 22 24 26 28 25 30 42 48 50 55 58 61 56 53
37 36 33 28 23 19 15 17 18 19 19 18 16 13 11 12 12 12 12 13 13 14 15 15 16 16 17 16 16 17 17 19 20 21 23 28 35 41 44 44 43 53 61
33 38 36 32 28 21 15 15 14 16 16 16 14 11 10 11 13 12 11 11 11 11 11 12 13 13 13 14 16 18 20 22 24 26 29 33 35 36 39 40 40 43 45

GFSMW_700_spd_174.txt.gz
Wind_Speed
9 6 8 10 12 12 13 14 14 18 17 13 19 23 17 16 15 16 13 11 10 10 10 11 11 9 10 7 7 9 7 4 3 3 3 4 4 5 8 6 6 7 6
13 9 8 10 12 12 13 13 13 16 15 12 17 23 17 12 14 14 12 10 10 12 9 10 12 13 12 9 7 6 6 6 1 1 3 2 8 2 2 4 6 7 7
16 13 11 11 13 12 11 15 15 16 18 18 22 20 14 12 12 10 11 13 9 8 9 10 11 9 11 10 7 7 6 5 2 1 2 2 1 2 5 3 3 5 5
20 18 13 14 13 12 11 13 19 19 20 20 19 17 17 16 13 13 13 12 11 9 8 11 11 11 10 9 8 7 6 6 4 2 2 2 1 3 4 5 3 3 4
22 19 16 14 11 15 12 13 18 19 19 19 16 16 16 16 16 14 10 11 12 11 10 12 11 13 11 10 9 9 8 9 7 4 3 1 1 1 2 1 6 6 5
24 20 18 16 17 16 14 15 14 15 16 17 17 17 16 15 16 16 15 13 13 12 12 11 11 11 10 10 9 9 10 12 9 7 4 5 2 3 2 2 5 6 12
26 26 26 23 19 19 15 14 12 12 12 14 15 15 16 15 15 16 17 15 13 13 13 12 10 11 11 10 9 9 9 11 9 9 8 6 7 5 5 4 5 4 8
27 26 28 25 21 18 15 16 14 12 11 11 13 15 16 18 18 19 19 16 17 16 16 12 10 11 11 11 10 11 10 10 11 12 10 7 7 7 6 6 6 6 6
28 30 26 26 22 18 18 16 16 17 15 12 13 13 16 18 19 20 21 20 19 20 17 14 12 12 11 10 11 10 9 12 12 13 13 10 10 11 10 8 6 6 6
21 30 30 29 25 21 19 20 19 19 17 16 15 15 16 17 19 22 23 23 22 21 20 16 16 15 12 11 11 11 12 10 10 11 12 13 14 12 11 9 7 7 6
10 24 25 27 26 26 24 22 22 23 21 20 20 18 18 18 18 21 22 22 23 22 21 20 18 18 17 16 15 15 14 14 12 12 11 12 13 13 11 10 9 8 7
8 14 20 21 24 25 24 23 23 23 23 24 21 19 20 21 19 18 20 21 22 21 22 22 21 20 20 20 18 18 19 18 17 16 14 13 13 13 13 12 11 11 11
5 10 14 15 18 19 21 22 24 19 24 21 20 24 24 23 22 20 20 21 21 21 22 23 23 22 22 21 21 20 21 21 19 18 18 18 18 15 15 15 14 13 13
6 7 9 12 12 17 21 21 22 24 26 26 24 26 27 28 26 25 23 22 21 19 21 22 23 23 25 26 25 25 25 22 21 19 19 20 20 19 19 18 16 15 14
12 9 10 11 15 15 19 21 22 23 24 25 24 23 27 28 30 32 30 29 27 24 22 23 25 25 27 27 28 27 27 25 25 23 21 20 22 22 21 21 20 18 17
16 13 11 9 10 10 12 14 15 15 16 18 19 20 23 26 27 26 27 31 32 30 30 32 29 26 27 28 28 28 28 27 24 27 25 22 22 23 23 23 23 22 22
18 15 12 11 10 10 12 12 12 10 10 11 13 13 14 17 19 20 22 26 29 34 32 31 32 34 34 31 28 29 28 27 26 26 24 24 24 24 24 23 24 24 24
19 18 16 12 11 12 13 11 9 8 5 4 5 9 13 15 16 16 17 20 25 31 36 38 40 36 34 30 27 28 29 27 26 24 24 25 26 27 27 26 27 26 28
15 17 18 13 12 14 13 11 8 6 3 3 4 6 9 14 16 17 18 19 17 22 24 29 31 31 27 27 26 28 28 27 26 25 25 26 26 26 27 29 30 30 30
19 21 20 13 12 16 14 12 10 8 7 8 8 7 7 10 13 15 17 17 16 16 18 23 22 24 27 27 27 28 27 26 25 25 26 27 29 30 29 31 32 33 31
23 24 23 16 13 16 17 15 13 10 9 11 12 13 11 11 12 13 14 15 15 14 13 13 17 18 27 34 30 26 26 28 25 27 28 30 31 33 34 34 34 33 35
22 24 26 23 18 13 16 16 15 12 12 13 16 14 12 12 13 13 14 15 15 13 10 10 12 17 19 21 28 31 29 29 30 31 34 36 37 39 40 41 40 39 39
18 24 34 31 25 17 15 15 15 14 14 16 19 15 13 12 12 13 13 14 17 18 16 14 12 10 9 14 20 26 30 33 31 30 30 31 31 35 43 46 43 42 43
23 27 37 39 33 25 19 17 16 15 15 16 17 14 13 13 13 12 12 12 13 17 20 20 19 17 16 16 16 17 17 19 21 22 24 26 28 28 25 30 40 43 46
18 26 38 45 38 31 23 22 19 16 15 17 15 12 12 12 12 11 11 12 12 13 15 16 17 17 17 17 17 17 17 17 18 21 23 26 29 31 32 32 34 37 40
18 22 41 48 40 35 28 26 22 18 15 16 15 11 9 11 13 13 12 11 11 11 12 12 12 13 14 14 14 14 15 18 20 21 23 23 24 25 27 30 33 34 36